This is the latest recevied weather packets stored in our database for station/object KI4BIY. If no packets are shown the sender has not sent any weather packets the latest 10 day(s).
| Time | Temp. | Humidity | Pressure | Rain* | Wind** | Luminosity | Snow |
|---|---|---|---|---|---|---|---|
| 1777743771 | 20.56° C | 45% | 1017.2 hPa | 0 mm | - | 740 W/m² | - |
| 1777743467 | 21.11° C | 42% | 1017.2 hPa | 0 mm | - | 727 W/m² | - |
| 1777743165 | 20.56° C | 45% | 1017.3 hPa | 0 mm | - | 679 W/m² | - |
| 1777742863 | 20.56° C | 42% | 1017.4 hPa | 0 mm | - | 663 W/m² | - |
| 1777742558 | 20.56° C | 44% | 1017.5 hPa | 0 mm | - | 712 W/m² | - |
| 1777742254 | 21.11° C | 43% | 1017.9 hPa | 0 mm | - | 614 W/m² | - |
| 1777741952 | 20° C | 43% | 1017.7 hPa | 0 mm | - | 564 W/m² | - |
| 1777741649 | 20.56° C | 43% | 1017.4 hPa | 0 mm | - | 547 W/m² | - |
| 1777741345 | 20.56° C | 43% | 1017.6 hPa | 0 mm | - | 585 W/m² | - |
| 1777741041 | 20° C | 45% | 1017.8 hPa | 0 mm | - | 655 W/m² | - |
| 1777740739 | 20.56° C | 41% | 1017.7 hPa | 0 mm | - | 719 W/m² | - |
| 1777740435 | 20.56° C | 47% | 1017.9 hPa | 0 mm | - | 690 W/m² | - |
| 1777740133 | 20.56° C | 41% | 1017.6 hPa | 0 mm | - | 694 W/m² | - |
| 1777739828 | 20.56° C | 43% | 1017.8 hPa | 0 mm | - | 698 W/m² | - |
| 1777739525 | 20° C | 46% | 1017.8 hPa | 0 mm | - | 699 W/m² | - |
| 1777739222 | 20.56° C | 43% | 1017.8 hPa | 0 mm | - | 576 W/m² | - |
| 1777738918 | 20.56° C | 42% | 1017.8 hPa | 0 mm | - | 724 W/m² | - |
| 1777738616 | 20° C | 46% | 1017.8 hPa | 0 mm | - | 814 W/m² | - |
| 1777738312 | 20° C | 43% | 1018.2 hPa | 0 mm | - | 791 W/m² | - |
| 1777738011 | 20° C | 44% | 1017.7 hPa | 0 mm | - | 805 W/m² | - |
| 1777737709 | 20° C | 47% | 1017.8 hPa | 0 mm | - | 778 W/m² | - |
| 1777737407 | 20° C | 44% | 1017.8 hPa | 0 mm | - | 509 W/m² | - |
| 1777737104 | 20.56° C | 44% | 1018 hPa | 0 mm | - | 710 W/m² | - |
| 1777736800 | 20° C | 47% | 1017.9 hPa | 0 mm | - | 753 W/m² | - |
| 1777736171 | 18.89° C | 44% | 1018.1 hPa | 0 mm | - | 756 W/m² | - |
* Rain latest hour (hover to see other rain measurements)
** Current wind speed in m/s (hover to see current wind gust speed)